User: anonymous   Login
Location: Unspecified
(0.0000°N, 0.0000°E)
Time: 05:27:38
(UTC+00:00)
Language:

NANOSAT-1 - Orbit

View from above orbital plane
View from above orbital plane
View from above satellite
View from above satellite

Ground track
Ground track

The orbit data is extracted from the following two-line orbital elements,

1 28493U 04049B   23272.54511640  .00002149  00000-0  32489-3 0  9990
2 28493  98.1306  19.3898 0003417 220.7547 139.3406 14.75299778  9009
Epoch (UTC): 29 September 2023 13:04:58
Eccentricity: 0.0003417
inclination: 98.1306°
perigee height: 642 km
apogee height: 646 km
right ascension of ascending node: 19.3898°
argument of perigee: 220.7547°
revolutions per day: 14.75299778
mean anomaly at epoch: 139.3406°
orbit number at epoch: 900

The dashed part of the orbit path shows where the satellite is in the earth's shadow,  

DLR